Regional Weather Roundup
Issued by NWS

Current Version | Previous Version | Text Only | Print | Product List | Glossary On
Versions: 1 2 3 4 5 6 7 8 9 10 11 12 13 14 15 16 17 18 19 20 21 22 23 24 25
471
ASUS42 KTBW 221516
RWRFL
FLORIDA REGIONAL WEATHER ROUNDUP
NATIONAL WEATHER SERVICE TAMPA BAY RUSKIN FL
1100 AM EDT FRI MAY 22 2015

NOTE: "FAIR" INDICATES FEW OR NO CLOUDS BELOW 12,000 FEET WITH NO
SIGNIFICANT WEATHER AND/OR OBSTRUCTIONS TO VISIBILITY.


FLZ001>010-012>015-112-114-115-221600-
PANHANDLE FLORIDA

CITY           SKY/WX    TMP DP  RH WIND       PRES   REMARKS
PENSACOLA      MOSUNNY   68  56  65 N12G17    30.18S
PENSACOLA NAS  PTSUNNY   71  57  61 N12       30.17S
MILTON NAS     MOSUNNY   69  55  60 N9        30.19
CRESTVIEW      MOSUNNY   70  54  56 N8        30.21R
DUKE FIELD     FAIR      70  54  56 N12       30.18S HAZE
VALPARAISO     PTSUNNY   71  53  52 N12       30.18S
MARY ESTHER    PTSUNNY   72  54  53 N10G23    30.16S
TRI COUNTY     FAIR      70  54  56 N6        30.19S
PANAMA CITY    FAIR      72  57  59 N9        30.17R
TYNDALL AFB    MOSUNNY   75  62  63 N9        30.16R
APALACHICOLA   PTSUNNY   81  63  54 N8        30.14R

STATION/POSITION SKY/WX   TEMP    WIND        PRES    WAVE   SWELL
                          AIR SEA DIR/SP/G            HT/PER HT/PER
                          (F)     (DEG/KT/KT) (MB)    (FT/S) (FT/S)
30.1N   87.6W              68 81   30/ 14/ 16 1020.6F   2/ 3
29.2N   88.2W              74 81   50/ 17/ 19 1021.3R   5/ 5
28.8N   86.0W              78 81   50/ 12/ 16 1020.6R   2/ 4
PANAMA CITY BEAC           69 77   20/  7/ 13 1021.0R
CAPE SAN BLAS    NOT AVBL
TOWER C                    72      20/ 11/ 12 1020.7R
28.5N   84.5W              80 80   50/ 10/ 14 1019.8R   2/ 3

$$
FLZ011-016>038-118-127-128-134-139-239-221600-
NORTH FLORIDA

CITY           SKY/WX    TMP DP  RH WIND       PRES   REMARKS
MARIANNA       SUNNY     70  55  59 CALM      30.18R
TALLAHASSEE    PTSUNNY   75  57  53 N9        30.16R
PERRY          SUNNY     76  61  60 NW8       30.15R
CROSS CITY       N/A     81  64  56 NE6       30.12R
LAKE CITY      FAIR      75  63  64 CALM      30.14R
GAINESVILLE    SUNNY     79  63  57 VRB5      30.12R
MAYPORT NAS    MOSUNNY   78  63  59 NE10      30.12R
JACKSONVILLE   MOSUNNY   77  61  57 N6        30.13R
JAX NAS        MOSUNNY   79  61  53 N9        30.13R
JAX CRAIG      SUNNY     78  62  57 NE6       30.12R
JAX CECIL      SUNNY     77  63  61 N6        30.13R
FERNANDINA BEA FAIR      82  63  51 E9        30.12R
ST AUGUSTINE   SUNNY     78  67  68 N13       30.13R

STATION/POSITION SKY/WX   TEMP    WIND        PRES    WAVE   SWELL
                          AIR SEA DIR/SP/G            HT/PER HT/PER
                          (F)     (DEG/KT/KT) (MB)    (FT/S) (FT/S)
SHELL POINT                72      10/  7/  9   N/A
KEATON BEACH               77     360/  3/  5 1020.6R
CEDAR KEY                  80      70/  2/  4 1020.1R
FERNANDINA                 72 80  350/  8/ 11 1018.9R
30.7N   81.3W                 77                N/A     2/ 4
MAYPORT                    72 79   40/ 10/ 13 1019.9R
31.4N   80.9W              72 77   20/ 10/ 12 1020.0R   2/ 4
ST AUGUSTINE               72 73  350/ 15/ 15 1020.9R

$$
FLZ040-043>046-052-053-057-058-063-144-221600-
INTERIOR CENTRAL FLORIDA

CITY           SKY/WX    TMP DP  RH WIND       PRES   REMARKS
OCALA          SUNNY     81  64  57 NE7       30.12R
THE VILLAGES     N/A     81  70  69 CALM      30.02R
LEESBURG       SUNNY     84  67  56 VRB3      30.12R
SANFORD        CLOUDY    83  67  58 VRB3      30.10S
ORLANDO EXEC   MOSUNNY   85  67  54 VRB3      30.10R
ORLANDO INTL   MOSUNNY   85  69  58 N3        30.10R
KISSIMMEE      SUNNY     84  70  61 CALM      30.11R
WINTER HAVEN   SUNNY     88  70  55 N9        30.12R
LAKELAND       SUNNY     84  70  61 NE8       30.11R
BARTOW         SUNNY     82  68  61 N5        30.11R
OKEECHOBEE     MOSUNNY   82  72  69 NE5       30.09S

$$
FLZ041-047-054-059-064-141-147-221600-
EAST CENTRAL FLORIDA

CITY           SKY/WX    TMP DP  RH WIND       PRES   REMARKS
ORMOND BEACH   SUNNY     79  66  65 NE6       30.11R
DAYTONA BEACH  MOSUNNY   82  67  60 NE10      30.11R
DELAND           N/A     82  64  54 NW6       30.12R
NEW SMYRNA BEA MOSUNNY   82  68  61 N8G18     30.11R
JFK SPACE CTR  SUNNY     82  70  65 N9        30.09R
TITUSVILLE     SUNNY     82  73  74 N13       30.10R
CAPE CANAVERAL SUNNY     84  72  65 N10       30.08R
PATRICK AFB    SUNNY     84  73  70 NE10      30.08S
MELBOURNE      SUNNY     85  73  67 N7        30.08R
VERO BEACH     MOSUNNY   89  71  55 N8        30.08S HX  95
FT PIERCE      PTSUNNY   87  74  64 E8        30.08R HX  95
STUART         MOSUNNY   84  73  70 NE12      30.09

STATION/POSITION SKY/WX   TEMP    WIND        PRES    WAVE   SWELL
                          AIR SEA DIR/SP/G            HT/PER HT/PER
                          (F)     (DEG/KT/KT) (MB)    (FT/S) (FT/S)
28.5N   80.2W              79 80  350/ 10/ 12 1018.8R
28.9N   78.5W              81 79  280/  6/  6 1018.3R
TRIDENT PIER               81 82  350/  9/ 11 1019.2R
28.4N   80.5W                 81                N/A     1/ 8
27.5N   80.2W                 80                N/A     1/ 3

$$
FLZ050-056-061-142-242-148-248-149-249-151-251-155-255-
160-260-221600-
WEST CENTRAL FLORIDA

CITY           SKY/WX    TMP DP  RH WIND       PRES   REMARKS
CRYSTAL RIVER  FAIR      84  66  54 CALM      30.12R
INVERNESS      FAIR      82  70  65 N3        30.12R
BROOKSVILLE    SUNNY     87  67  51 VRB5      30.12R
CLEARWATER     SUNNY     85  70  60 N7        30.10S
TAMPA INTL     MOSUNNY   86  67  52 VRB3      30.11R
TAMPA EXEC     SUNNY     88  70  55 E5        30.11S
PLANT CITY     SUNNY     86  73  66 N6        30.12S
MACDILL AFB    SUNNY     88  70  55 NE7       30.10R
PETER O KNIGHT SUNNY     88  70  55 NE9       30.10S
ST PETERSBURG  SUNNY     85  69  58 E9        30.08S
SARASOTA       SUNNY     85  72  65 N7        30.08R
VENICE         FAIR      84  75  74 NW8       30.10S

STATION/POSITION SKY/WX   TEMP    WIND        PRES    WAVE   SWELL
                          AIR SEA DIR/SP/G            HT/PER HT/PER
                          (F)     (DEG/KT/KT) (MB)    (FT/S) (FT/S)
CEDAR KEY                  80      70/  2/  4 1020.1R
28.5N   84.5W              80 80   50/ 10/ 14 1019.8R   2/ 3
27.3N   84.2W                 81                N/A     1/ 4
CLEARWATER BEACH           82 84   10/  6/  8 1019.3R
MIDDLE TAMPA BAY           82      20/  8/  9 1019.2R
VENICE                     83 84  300/  6/  8 1018.8R

$$
FLZ066-069-070-075>078-162-262-165-265-221600-
SOUTHWEST FLORIDA AND KEYS

CITY           SKY/WX    TMP DP  RH WIND       PRES   REMARKS
PUNTA GORDA    SUNNY     87  73  62 NE6       30.11R
FT MYERS       SUNNY     87  71  58 CALM      30.08S
SOUTHWEST INTL MOSUNNY   87  70  56 NE5       30.08F
NAPLES         MOSUNNY   87  70  56 VRB6      30.08S
MARCO ISLAND   MOSUNNY   88  70  55 NE3       30.09R
IMMOKALEE      SUNNY    N/A N/A N/A CALM      30.09S
MARATHON       PTSUNNY   84  75  74 N8        30.09R
KEY WEST NAS   PTSUNNY   87  72  60 N7        30.10R
KEY WEST INTL  MOSUNNY   85  73  67 VRB5      30.10R

STATION/POSITION SKY/WX   TEMP    WIND        PRES    WAVE   SWELL
                          AIR SEA DIR/SP/G            HT/PER HT/PER
                          (F)     (DEG/KT/KT) (MB)    (FT/S) (FT/S)
VENICE                     83 84  300/  6/  8 1018.8R
NAPLES                     81 85  330/  9/ 11 1018.6R
26.0N   85.6W              81 83   20/  2/  4 1019.9R   1
DRY TORTUGAS               81      60/  6/  6 1018.9R
NW FL BAY                  83      70/  4/  6 1018.8
SAND KEY                   82      30/  6/  8 1019.2R
SOMBRERO KEY               83     190/  3/  3 1019.8R
LONG KEY                   82 86   10/  3/  5 1019.8R
MOLASSES REEF              81 82  130/  1/  2 1019.0R

$$
FLZ067-068-071>074-168-172>174-221600-
SOUTHEAST FLORIDA

CITY           SKY/WX    TMP DP  RH WIND       PRES   REMARKS
W PALM BEACH   MOSUNNY   86  73  65 E12       30.09R
FT LAUDER-EXEC SUNNY     88  71  57 VRB6      30.08R
FT LAUDERDALE  MOSUNNY   88  73  61 N6        30.07S HX  95
POMPANO BEACH  SUNNY     87  70  56 NE9       30.07S
PEMBROKE PINES SUNNY     87  71  58 E5        30.09R
OPA LOCKA      SUNNY     87  72  60 CALM      30.08S
MIAMI          MOSUNNY   88  70  55 VRB6      30.08R
WEST KENDALL   MOSUNNY   88  71  57 CALM      30.08S
HOMESTEAD      SUNNY     86  71  59 VRB1      30.08S

STATION/POSITION SKY/WX   TEMP    WIND        PRES    WAVE   SWELL
                          AIR SEA DIR/SP/G            HT/PER HT/PER
                          (F)     (DEG/KT/KT) (MB)    (FT/S) (FT/S)
PORT EVERGLADES            82      70/  7/  9 1018.7R
VIRGINIA KEY               83 84  160/  1/  2 1018.1R
LAKE WORTH                 80 82   10/  7/  8 1018.1R



USA.gov is the U.S. government's official web portal to all federal, state and local government web resources and services.